Location: La Fredeussais
(48.1780°N, 1.3980°W)
Time: 11:45:40
(UTC+00:00)

PRISM - Pass Details

Date: 29 October 2021
Orbit: 561 x 584 km, 98.2° (Epoch: 29 November)

Event Time Altitude Azimuth Distance (km) Brightness Sun altitude
Rises 03:48:44 0° 18° (NNE) 2,797 ? -30.0°
Reaches altitude 10° 03:50:57 10° 23° (NNE) 1,890 ? -29.6°
Enters shadow 03:53:12 30° 39° (NE) 1,048 ? -29.3°
